View from above orbital plane
|
View from above satellite
|
Ground track
|
The orbit data is extracted from the following two-line orbital elements,
1 12848U 81094A 21018.86848182 .00001239 00000-0 71551-4 0 9990
2 12848 82.4800 230.5234 0591289 168.2046 193.3727 14.25590587976287
Epoch (UTC): | 18 January 2021 20:50:36 |
Eccentricity: | 0.0591289 |
inclination: | 82.4800° |
perigee height: | 381 km |
apogee height: | 1231 km |
right ascension of ascending node: | 230.5234° |
argument of perigee: | 168.2046° |
revolutions per day: | 14.25590587 |
mean anomaly at epoch: | 193.3727° |
orbit number at epoch: | 97628 |
The dashed part of the orbit path shows where the satellite is in the earth's shadow,
|
|